Miles City, MT

4:21 AM MDT on May 23, 2018 (GMT -0600)
Wiley

Weather History for KMLS - October, 2013

Change the Weather History Date:

Friday, October 4, 2013

  Actual Average Record
Temperature  
Mean Temperature 35 °F 52 °F  
Max Temperature 42 °F 65 °F 93 °F (1963)
Min Temperature 28 °F 38 °F 25 °F (2017)
Degree Days  
Heating Degree Days 30 14  
Month to date heating degree days 72 52  
Since 1 July heating degree days 175 288  
Cooling Degree Days 0 0  
Month to date cooling degree days 0 0  
Year to date cooling degree days 877 728  
Moisture  
Dew Point 32 °F    
Average Humidity 74    
Maximum Humidity 92    
Minimum Humidity 55    
Precipitation  
Precipitation 0.04 in 0.03 in 0.96 in (2005)
Month to date precipitation 0.26 0.15  
Year to date precipitation 15.69 10.99  
Sea Level Pressure  
Sea Level Pressure 30.38 in    
Wind  
Wind Speed 13 mph (NNW)    
Max Wind Speed 22 mph    
Max Gust Speed 25 mph    
Visibility 10 miles    
Events Rain    
T = Trace of Precipitation, MM = Missing Value Source: NWS Daily Summary

Daily Weather History Graph

Daily Weather History Graph

Search for Another Location

Airport or City:

Astronomy

Oct. 04, 2013 Rise Set
Actual Time 7:06 AM MDT 6:37 PM MDT
Civil Twilight 6:36 AM MDT 7:07 PM MDT
Nautical Twilight 6:01 AM MDT 7:41 PM MDT
Astronomical Twilight 5:26 AM MDT 8:17 PM MDT
Moon 6:45 AM MDT (10/4) 6:18 PM MDT (10/4)
Length of Visible Light 12h 30m
Length of Day
11h 30m
Waning Crescent, 0% of the Moon is Illuminated
Oct 4
Waning Crescent
Oct 4
New
Oct 11
First Quarter
Oct 18
Full
Oct 26
Last Quarter

Hourly Weather History & Observations

Time (MDT) Temp. Windchill Dew Point Humidity Pressure Visibility Wind Dir Wind Speed Gust Speed Precip Events Conditions
12:53 AM 39.9 °F 32.1 °F 36.0 °F 86% 30.31 in 10.0 mi North 13.8 mph - 0.01 in Rain Light Rain
1:35 AM 39.2 °F 29.8 °F 35.6 °F 87% 30.27 in 10.0 mi NNE 18.4 mph 24.2 mph 0.00 in Rain Light Rain
1:53 AM 39.0 °F 30.3 °F 36.0 °F 89% 30.32 in 10.0 mi North 16.1 mph - 0.00 in Rain Light Rain
2:53 AM 37.9 °F 29.2 °F 35.1 °F 89% 30.34 in 10.0 mi North 15.0 mph - 0.01 in Rain Light Rain
3:51 AM 37.4 °F 28.9 °F 33.8 °F 87% 30.30 in 10.0 mi North 13.8 mph - 0.02 in Rain Light Rain
3:53 AM 37.0 °F 28.9 °F 34.0 °F 89% 30.35 in 10.0 mi North 12.7 mph - 0.02 in Rain Light Rain
4:05 AM 37.4 °F 28.5 °F 33.8 °F 87% 30.29 in 10.0 mi North 15.0 mph - 0.00 in Rain Light Rain
4:53 AM 37.0 °F 28.9 °F 34.0 °F 89% 30.35 in 10.0 mi North 12.7 mph - 0.01 in Rain Light Rain
5:53 AM 37.0 °F 30.4 °F 34.0 °F 89% 30.39 in 10.0 mi North 9.2 mph - 0.00 in   Overcast
6:53 AM 37.0 °F 28.5 °F 34.0 °F 89% 30.38 in 10.0 mi North 13.8 mph - 0.00 in Rain Light Rain
7:14 AM 37.4 °F 29.3 °F 33.8 °F 87% 30.34 in 10.0 mi North 12.7 mph - 0.00 in   Overcast
7:53 AM 37.0 °F 28.1 °F 34.0 °F 89% 30.40 in 10.0 mi North 15.0 mph - 0.00 in   Overcast
8:15 AM 37.4 °F 28.2 °F 33.8 °F 87% 30.34 in 10.0 mi North 16.1 mph - N/A   Overcast
8:53 AM 37.9 °F 30.0 °F 34.0 °F 86% 30.41 in 10.0 mi North 12.7 mph - N/A   Overcast
9:27 AM 37.4 °F 29.3 °F 35.6 °F 93% 30.38 in 10.0 mi North 12.7 mph - N/A   Overcast
9:53 AM 37.9 °F 29.2 °F 34.0 °F 86% 30.43 in 10.0 mi North 15.0 mph 19.6 mph N/A   Overcast
10:53 AM 37.9 °F 28.2 °F 32.0 °F 79% 30.44 in 10.0 mi North 18.4 mph - N/A   Overcast
11:53 AM 39.0 °F 31.0 °F 33.1 °F 79% 30.44 in 10.0 mi North 13.8 mph - N/A   Overcast
12:53 PM 39.9 °F 30.8 °F 32.0 °F 73% 30.43 in 10.0 mi North 18.4 mph - N/A   Overcast
1:53 PM 41.0 °F 33.9 °F 30.9 °F 67% 30.43 in 10.0 mi NNW 12.7 mph - N/A   Overcast
2:21 PM 41.0 °F 33.5 °F 30.2 °F 65% 30.37 in 10.0 mi North 13.8 mph - N/A   Overcast
2:31 PM 41.0 °F 32.5 °F 30.2 °F 65% 30.36 in 10.0 mi North 17.3 mph 24.2 mph N/A   Overcast
2:40 PM 41.0 °F 32.5 °F 30.2 °F 65% 30.35 in 10.0 mi North 17.3 mph - N/A   Overcast
2:53 PM 39.9 °F 30.8 °F 30.0 °F 68% 30.41 in 10.0 mi North 18.4 mph 25.3 mph N/A   Overcast
3:00 PM 39.2 °F 29.8 °F 30.2 °F 70% 30.35 in 10.0 mi NNW 18.4 mph - N/A   Overcast
3:53 PM 39.9 °F 31.8 °F 30.0 °F 68% 30.42 in 10.0 mi NNW 15.0 mph - N/A   Overcast
4:32 PM 41.0 °F 33.9 °F 28.4 °F 61% 30.37 in 10.0 mi North 12.7 mph - N/A   Overcast
4:53 PM 41.0 °F 32.8 °F 28.0 °F 60% 30.42 in 10.0 mi NNW 16.1 mph - N/A   Overcast
5:53 PM 41.0 °F 33.1 °F 26.1 °F 55% 30.41 in 10.0 mi North 15.0 mph 24.2 mph N/A   Clear
6:53 PM 39.9 °F 32.9 °F 27.0 °F 60% 30.41 in 10.0 mi North 11.5 mph - N/A   Clear
7:53 PM 37.9 °F 32.1 °F 28.0 °F 68% 30.40 in 10.0 mi NW 8.1 mph - N/A   Clear
8:53 PM 36.0 °F 29.6 °F 28.0 °F 73% 30.42 in 10.0 mi WNW 8.1 mph - N/A   Clear
9:53 PM 35.1 °F 28.6 °F 28.0 °F 76% 30.41 in 10.0 mi NW 8.1 mph - N/A   Clear
10:53 PM 32.0 °F 24.2 °F 27.0 °F 82% 30.41 in 10.0 mi West 9.2 mph - N/A   Clear
11:53 PM 28.9 °F 21.1 °F 27.0 °F 92% 30.40 in 10.0 mi WNW 8.1 mph - N/A   Clear